M I D A S
Marine Information and Data Acquisition System
Tripno 485 of the Zeeleeuw from 2003-05-06 06:51:58 to 2003-05-06 12:18:34
Back to CruiseResearch ActivitiesStationsMapUnderway DataData graphs

EquipmentUnitsComment
TimeDGPSUTC
LatitudeDGPSDM.mWGS84
LongitudeDGPSDM.mWGS84
TemperatureSBE03/SBE38deg celciusITS90
ConductivitySBE21S/mITS90
SalinitySBE21 Practical Salinity Units
ChlorophylAChelsea fluorimeterg/lCalibrated in Aceton
Missing or incorrect values are displayed as -999
Sea surface data collected by the RV Zeeleeuw from 2003-05-06 06:51:58 to 2003-05-06 12:18:34
Time Latitude Longitude Temperature Conductivity Salinity ChlorophylA
2003-05-06 06:53:00 51°13.6 2°56.11 -999 -999 -999 -999
2003-05-06 06:54:00 51°13.6 2°56.11 -999 -999 -999 -999
2003-05-06 06:55:00 51°13.61 2°56.08 -999 -999 -999 -999
2003-05-06 06:56:04 51°13.63 2°55.99 -999 -999 -999 -999
2003-05-06 06:57:04 51°13.65 2°55.89 -999 -999 -999 -999
2003-05-06 06:58:04 51°13.68 2°55.79 -999 -999 -999 -999
2003-05-06 06:59:00 51°13.69 2°55.78 -999 -999 -999 -999
2003-05-06 07:00:02 51°13.69 2°55.78 -999 -999 -999 -999
2003-05-06 07:01:04 51°13.7 2°55.77 -999 -999 -999 -999
2003-05-06 07:02:00 51°13.73 2°55.74 -999 -999 -999 -999
2003-05-06 07:03:00 51°13.76 2°55.69 -999 -999 -999 -999
2003-05-06 07:04:00 51°13.84 2°55.63 -999 -999 -999 -999
2003-05-06 07:05:00 51°13.95 2°55.54 -999 -999 -999 -999
2003-05-06 07:06:00 51°14.07 2°55.45 -999 -999 -999 -999
2003-05-06 07:07:00 51°14.19 2°55.35 -999 -999 -999 -999
2003-05-06 07:08:00 51°14.3 2°55.2 -999 -999 -999 -999
2003-05-06 07:09:00 51°14.39 2°55 -999 -999 -999 -999
2003-05-06 07:10:00 51°14.44 2°54.77 -999 -999 -999 -999
2003-05-06 07:11:00 51°14.44 2°54.62 -999 -999 -999 -999
2003-05-06 07:12:00 51°14.4 2°54.43 -999 -999 -999 -999
2003-05-06 07:13:00 51°14.32 2°54.15 -999 -999 -999 -999
2003-05-06 07:14:00 51°14.26 2°53.97 -999 -999 -999 -999
2003-05-06 07:15:00 51°14.23 2°53.88 -999 -999 -999 -999
2003-05-06 07:16:00 51°14.21 2°53.81 -999 -999 -999 -999
2003-05-06 07:17:00 51°14.19 2°53.74 -999 -999 -999 -999
2003-05-06 07:18:00 51°14.17 2°53.67 -999 -999 -999 -999
2003-05-06 07:19:00 51°14.16 2°53.59 -999 -999 -999 -999
2003-05-06 07:20:00 51°14.11 2°53.45 -999 -999 -999 -999
2003-05-06 07:21:00 51°13.99 2°53.23 -999 -999 -999 -999
2003-05-06 07:22:00 51°13.88 2°52.94 -999 -999 -999 -999
2003-05-06 07:23:00 51°13.77 2°52.64 -999 -999 -999 -999
2003-05-06 07:24:00 51°13.66 2°52.35 -999 -999 -999 -999
2003-05-06 07:25:00 51°13.55 2°52.04 -999 -999 -999 -999
2003-05-06 07:26:00 51°13.44 2°51.74 -999 -999 -999 -999
2003-05-06 07:27:00 51°13.33 2°51.43 -999 -999 -999 -999
2003-05-06 07:28:00 51°13.21 2°51.11 -999 -999 -999 -999
2003-05-06 07:29:00 51°13.09 2°50.78 -999 -999 -999 -999
2003-05-06 07:30:00 51°12.97 2°50.44 -999 -999 -999 -999
2003-05-06 07:31:00 51°12.85 2°50.1 -999 -999 -999 -999
2003-05-06 07:32:00 51°12.73 2°49.76 -999 -999 -999 -999
2003-05-06 07:33:00 51°12.61 2°49.42 -999 -999 -999 -999
2003-05-06 07:34:00 51°12.5 2°49.07 -999 -999 -999 -999
2003-05-06 07:35:00 51°12.39 2°48.73 -999 -999 -999 -999
2003-05-06 07:36:00 51°12.28 2°48.38 -999 -999 -999 -999
2003-05-06 07:37:00 51°12.17 2°48.03 -999 -999 -999 -999
2003-05-06 07:38:00 51°12.06 2°47.68 -999 -999 -999 -999
2003-05-06 07:39:00 51°11.95 2°47.33 -999 -999 -999 -999
2003-05-06 07:40:00 51°11.85 2°46.98 -999 -999 -999 -999
2003-05-06 07:41:00 51°11.74 2°46.63 -999 -999 -999 -999
2003-05-06 07:42:00 51°11.63 2°46.28 -999 -999 -999 -999
2003-05-06 07:43:00 51°11.52 2°45.92 -999 -999 -999 -999
2003-05-06 07:44:00 51°11.42 2°45.57 -999 -999 -999 -999
2003-05-06 07:45:00 51°11.31 2°45.22 -999 -999 -999 -999
2003-05-06 07:46:00 51°11.2 2°44.87 -999 -999 -999 -999
2003-05-06 07:47:00 51°11.09 2°44.52 -999 -999 -999 -999
2003-05-06 07:48:00 51°10.99 2°44.16 -999 -999 -999 -999
2003-05-06 07:49:00 51°10.88 2°43.81 -999 -999 -999 -999
2003-05-06 07:50:00 51°10.77 2°43.46 -999 -999 -999 -999
2003-05-06 07:51:00 51°10.67 2°43.11 -999 -999 -999 -999
2003-05-06 07:52:00 51°10.57 2°42.76 -999 -999 -999 -999
2003-05-06 07:53:00 51°10.48 2°42.41 -999 -999 -999 -999
2003-05-06 07:54:00 51°10.38 2°42.05 -999 -999 -999 -999
2003-05-06 07:55:00 51°10.29 2°41.7 -999 -999 -999 -999
2003-05-06 07:56:00 51°10.19 2°41.35 -999 -999 -999 -999
2003-05-06 07:57:00 51°10.09 2°40.99 -999 -999 -999 -999
2003-05-06 07:58:00 51°9.99 2°40.64 -999 -999 -999 -999
2003-05-06 07:59:00 51°9.9 2°40.28 -999 -999 -999 -999
2003-05-06 08:00:00 51°9.8 2°39.92 -999 -999 -999 -999
2003-05-06 08:01:00 51°9.71 2°39.57 -999 -999 -999 -999
2003-05-06 08:02:00 51°9.61 2°39.21 -999 -999 -999 -999
2003-05-06 08:03:00 51°9.51 2°38.85 -999 -999 -999 -999
2003-05-06 08:04:00 51°9.42 2°38.5 -999 -999 -999 -999
2003-05-06 08:05:00 51°9.32 2°38.14 -999 -999 -999 -999
2003-05-06 08:06:00 51°9.23 2°37.78 -999 -999 -999 -999
2003-05-06 08:07:00 51°9.13 2°37.43 -999 -999 -999 -999
2003-05-06 08:08:00 51°9.06 2°37.19 -999 -999 -999 -999
2003-05-06 08:09:00 51°9.04 2°37.14 -999 -999 -999 -999
2003-05-06 08:10:00 51°9.09 2°37.06 -999 -999 -999 -999
2003-05-06 08:11:00 51°9.12 2°37.16 -999 -999 -999 -999
2003-05-06 08:12:00 51°9.11 2°37.21 -999 -999 -999 -999
2003-05-06 08:13:00 51°9.1 2°37.22 -999 -999 -999 -999
2003-05-06 08:14:00 51°9.1 2°37.22 -999 -999 -999 -999
2003-05-06 08:15:00 51°9.1 2°37.23 -999 -999 -999 -999
2003-05-06 08:16:00 51°9.1 2°37.24 -999 -999 -999 -999
2003-05-06 08:17:00 51°9.1 2°37.24 -999 -999 -999 -999
2003-05-06 08:18:00 51°9.1 2°37.25 -999 -999 -999 -999
2003-05-06 08:19:00 51°9.1 2°37.25 -999 -999 -999 -999
2003-05-06 08:20:00 51°9.1 2°37.26 -999 -999 -999 -999
2003-05-06 08:21:00 51°9.11 2°37.26 -999 -999 -999 -999
2003-05-06 08:22:00 51°9.11 2°37.26 -999 -999 -999 -999
2003-05-06 08:23:00 51°9.11 2°37.26 -999 -999 -999 -999
2003-05-06 08:24:00 51°9.11 2°37.26 -999 -999 -999 -999
2003-05-06 08:25:00 51°9.11 2°37.26 -999 -999 -999 -999
2003-05-06 08:26:00 51°9.11 2°37.26 -999 -999 -999 -999
2003-05-06 08:27:00 51°9.12 2°37.26 -999 -999 -999 -999
2003-05-06 08:28:00 51°9.12 2°37.26 -999 -999 -999 -999
2003-05-06 08:29:00 51°9.12 2°37.26 -999 -999 -999 -999
2003-05-06 08:30:00 51°9.12 2°37.25 -999 -999 -999 -999
2003-05-06 08:31:00 51°9.12 2°37.25 -999 -999 -999 -999
2003-05-06 08:32:00 51°9.15 2°37.24 -999 -999 -999 -999
2003-05-06 08:33:00 51°9.18 2°37.16 -999 -999 -999 -999
2003-05-06 08:34:00 51°9.14 2°36.93 -999 -999 -999 -999
2003-05-06 08:35:00 51°9.07 2°36.58 -999 -999 -999 -999
2003-05-06 08:36:00 51°9 2°36.2 -999 -999 -999 -999
2003-05-06 08:37:00 51°8.93 2°35.82 -999 -999 -999 -999
2003-05-06 08:38:00 51°8.86 2°35.43 -999 -999 -999 -999
2003-05-06 08:39:00 51°8.77 2°35.06 -999 -999 -999 -999
2003-05-06 08:40:00 51°8.67 2°34.69 -999 -999 -999 -999
2003-05-06 08:41:00 51°8.58 2°34.31 -999 -999 -999 -999
2003-05-06 08:42:00 51°8.49 2°33.94 -999 -999 -999 -999
2003-05-06 08:43:00 51°8.4 2°33.56 -999 -999 -999 -999
2003-05-06 08:44:00 51°8.32 2°33.22 -999 -999 -999 -999
2003-05-06 08:45:00 51°8.29 2°33.02 -999 -999 -999 -999
2003-05-06 08:46:00 51°8.25 2°32.9 -999 -999 -999 -999
2003-05-06 08:47:00 51°8.19 2°32.87 -999 -999 -999 -999
2003-05-06 08:48:00 51°8.13 2°32.91 -999 -999 -999 -999
2003-05-06 08:49:00 51°8.07 2°32.97 -999 -999 -999 -999
2003-05-06 08:50:00 51°8.05 2°32.95 -999 -999 -999 -999
2003-05-06 08:51:00 51°8.04 2°32.97 -999 -999 -999 -999
2003-05-06 08:52:00 51°8.04 2°32.96 -999 -999 -999 -999
2003-05-06 08:53:00 51°8.03 2°32.96 -999 -999 -999 -999
2003-05-06 08:54:00 51°8.03 2°32.96 -999 -999 -999 -999
2003-05-06 08:55:00 51°8.04 2°32.95 -999 -999 -999 -999
2003-05-06 08:56:00 51°8.04 2°32.94 -999 -999 -999 -999
2003-05-06 08:57:00 51°8.05 2°32.92 -999 -999 -999 -999
2003-05-06 08:58:00 51°8.05 2°32.91 -999 -999 -999 -999
2003-05-06 08:59:00 51°8.06 2°32.89 -999 -999 -999 -999
2003-05-06 09:00:00 51°8.06 2°32.87 -999 -999 -999 -999
2003-05-06 09:01:00 51°8.06 2°32.85 -999 -999 -999 -999
2003-05-06 09:02:00 51°8.07 2°32.83 -999 -999 -999 -999
2003-05-06 09:03:00 51°8.07 2°32.81 -999 -999 -999 -999
2003-05-06 09:04:00 51°8.07 2°32.79 -999 -999 -999 -999
2003-05-06 09:05:00 51°8.08 2°32.77 -999 -999 -999 -999
2003-05-06 09:06:00 51°8.08 2°32.75 -999 -999 -999 -999
2003-05-06 09:07:00 51°8.1 2°32.73 -999 -999 -999 -999
2003-05-06 09:08:00 51°8.13 2°32.75 -999 -999 -999 -999
2003-05-06 09:09:00 51°8.14 2°32.8 -999 -999 -999 -999
2003-05-06 09:10:00 51°8.11 2°32.92 -999 -999 -999 -999
2003-05-06 09:11:00 51°8.04 2°33.02 -999 -999 -999 -999
2003-05-06 09:12:00 51°8.05 2°33.08 -999 -999 -999 -999
2003-05-06 09:13:00 51°8.05 2°33.07 -999 -999 -999 -999
2003-05-06 09:14:00 51°8.05 2°33.06 -999 -999 -999 -999
2003-05-06 09:15:00 51°8.05 2°33.05 -999 -999 -999 -999
2003-05-06 09:16:00 51°8.05 2°33.04 -999 -999 -999 -999
2003-05-06 09:17:00 51°8.05 2°33.02 -999 -999 -999 -999
2003-05-06 09:18:00 51°8.06 2°33 -999 -999 -999 -999
2003-05-06 09:19:00 51°8.1 2°32.96 -999 -999 -999 -999
2003-05-06 09:20:00 51°8.22 2°32.91 -999 -999 -999 -999
2003-05-06 09:21:00 51°8.42 2°32.87 -999 -999 -999 -999
2003-05-06 09:22:00 51°8.63 2°32.82 -999 -999 -999 -999
2003-05-06 09:23:00 51°8.83 2°32.77 -999 -999 -999 -999
2003-05-06 09:24:00 51°8.98 2°32.72 -999 -999 -999 -999
2003-05-06 09:25:00 51°9.04 2°32.75 -999 -999 -999 -999
2003-05-06 09:26:00 51°9.05 2°32.77 -999 -999 -999 -999
2003-05-06 09:27:00 51°9.05 2°32.77 -999 -999 -999 -999
2003-05-06 09:28:00 51°9.05 2°32.77 -999 -999 -999 -999
2003-05-06 09:29:00 51°9.06 2°32.77 -999 -999 -999 -999
2003-05-06 09:30:00 51°9.06 2°32.75 -999 -999 -999 -999
2003-05-06 09:31:00 51°9.06 2°32.73 -999 -999 -999 -999
2003-05-06 09:32:00 51°9.07 2°32.71 -999 -999 -999 -999
2003-05-06 09:33:00 51°9.07 2°32.67 -999 -999 -999 -999
2003-05-06 09:34:00 51°9.07 2°32.63 -999 -999 -999 -999
2003-05-06 09:35:00 51°9.07 2°32.58 -999 -999 -999 -999
2003-05-06 09:36:00 51°9.06 2°32.53 -999 -999 -999 -999
2003-05-06 09:37:00 51°9.06 2°32.48 -999 -999 -999 -999
2003-05-06 09:38:00 51°9.08 2°32.43 -999 -999 -999 -999
2003-05-06 09:39:00 51°9.12 2°32.44 -999 -999 -999 -999
2003-05-06 09:40:00 51°9.11 2°32.61 -999 -999 -999 -999
2003-05-06 09:41:00 51°9.11 2°32.72 -999 -999 -999 -999
2003-05-06 09:42:00 51°9.12 2°32.77 -999 -999 -999 -999
2003-05-06 09:43:00 51°9.12 2°32.78 -999 -999 -999 -999
2003-05-06 09:44:00 51°9.12 2°32.77 -999 -999 -999 -999
2003-05-06 09:45:00 51°9.12 2°32.77 -999 -999 -999 -999
2003-05-06 09:46:00 51°9.11 2°32.76 -999 -999 -999 -999
2003-05-06 09:47:00 51°9.11 2°32.76 -999 -999 -999 -999
2003-05-06 09:48:00 51°9.1 2°32.75 -999 -999 -999 -999
2003-05-06 09:49:00 51°9.09 2°32.74 -999 -999 -999 -999
2003-05-06 09:50:00 51°9.09 2°32.73 -999 -999 -999 -999
2003-05-06 09:51:00 51°9.08 2°32.72 -999 -999 -999 -999
2003-05-06 09:52:00 51°9.07 2°32.71 -999 -999 -999 -999
2003-05-06 09:53:00 51°9.11 2°32.76 -999 -999 -999 -999
2003-05-06 09:54:00 51°9.24 2°32.96 -999 -999 -999 -999
2003-05-06 09:55:00 51°9.38 2°33.2 -999 -999 -999 -999
2003-05-06 09:56:00 51°9.52 2°33.44 -999 -999 -999 -999
2003-05-06 09:57:00 51°9.67 2°33.67 -999 -999 -999 -999
2003-05-06 09:58:00 51°9.82 2°33.91 -999 -999 -999 -999
2003-05-06 09:59:00 51°9.96 2°34.15 -999 -999 -999 -999
2003-05-06 10:00:00 51°10.11 2°34.4 -999 -999 -999 -999
2003-05-06 10:01:00 51°10.25 2°34.65 -999 -999 -999 -999
2003-05-06 10:02:00 51°10.38 2°34.9 -999 -999 -999 -999
2003-05-06 10:03:00 51°10.52 2°35.13 -999 -999 -999 -999
2003-05-06 10:04:00 51°10.65 2°35.38 -999 -999 -999 -999
2003-05-06 10:05:00 51°10.79 2°35.63 -999 -999 -999 -999
2003-05-06 10:06:00 51°10.93 2°35.88 -999 -999 -999 -999
2003-05-06 10:07:00 51°11.07 2°36.12 -999 -999 -999 -999
2003-05-06 10:08:00 51°11.22 2°36.33 -999 -999 -999 -999
2003-05-06 10:09:00 51°11.38 2°36.54 -999 -999 -999 -999
2003-05-06 10:10:00 51°11.54 2°36.75 -999 -999 -999 -999
2003-05-06 10:11:00 51°11.7 2°36.96 -999 -999 -999 -999
2003-05-06 10:12:00 51°11.86 2°37.17 -999 -999 -999 -999
2003-05-06 10:13:00 51°12.02 2°37.38 -999 -999 -999 -999
2003-05-06 10:14:00 51°12.18 2°37.59 -999 -999 -999 -999
2003-05-06 10:15:00 51°12.33 2°37.8 -999 -999 -999 -999
2003-05-06 10:16:00 51°12.49 2°38.01 -999 -999 -999 -999
2003-05-06 10:17:00 51°12.65 2°38.22 -999 -999 -999 -999
2003-05-06 10:18:00 51°12.8 2°38.42 -999 -999 -999 -999
2003-05-06 10:19:00 51°12.96 2°38.63 -999 -999 -999 -999
2003-05-06 10:20:00 51°13.12 2°38.83 -999 -999 -999 -999
2003-05-06 10:21:00 51°13.28 2°39.04 -999 -999 -999 -999
2003-05-06 10:22:00 51°13.44 2°39.24 -999 -999 -999 -999
2003-05-06 10:23:00 51°13.63 2°39.34 -999 -999 -999 -999
2003-05-06 10:24:00 51°13.84 2°39.34 -999 -999 -999 -999
2003-05-06 10:25:00 51°14.05 2°39.35 -999 -999 -999 -999
2003-05-06 10:26:00 51°14.25 2°39.29 -999 -999 -999 -999
2003-05-06 10:27:00 51°14.41 2°39.05 -999 -999 -999 -999
2003-05-06 10:28:00 51°14.43 2°38.69 -999 -999 -999 -999
2003-05-06 10:29:00 51°14.32 2°38.34 -999 -999 -999 -999
2003-05-06 10:30:00 51°14.22 2°37.98 -999 -999 -999 -999
2003-05-06 10:31:00 51°14.12 2°37.62 -999 -999 -999 -999
2003-05-06 10:32:00 51°14.02 2°37.25 -999 -999 -999 -999
2003-05-06 10:33:00 51°13.92 2°36.88 -999 -999 -999 -999
2003-05-06 10:34:00 51°13.83 2°36.5 -999 -999 -999 -999
2003-05-06 10:35:00 51°13.74 2°36.13 -999 -999 -999 -999
2003-05-06 10:36:00 51°13.68 2°35.75 -999 -999 -999 -999
2003-05-06 10:37:00 51°13.73 2°35.37 -999 -999 -999 -999
2003-05-06 10:38:00 51°13.89 2°35.13 -999 -999 -999 -999
2003-05-06 10:39:00 51°14.1 2°35.06 -999 -999 -999 -999
2003-05-06 10:40:00 51°14.32 2°35.04 -999 -999 -999 -999
2003-05-06 10:41:00 51°14.53 2°35.04 -999 -999 -999 -999
2003-05-06 10:42:00 51°14.74 2°35.04 -999 -999 -999 -999
2003-05-06 10:43:00 51°14.94 2°35.13 -999 -999 -999 -999
2003-05-06 10:44:00 51°15.13 2°35.28 -999 -999 -999 -999
2003-05-06 10:45:00 51°15.31 2°35.42 -999 -999 -999 -999
2003-05-06 10:46:00 51°15.5 2°35.56 -999 -999 -999 -999
2003-05-06 10:47:00 51°15.68 2°35.7 -999 -999 -999 -999
2003-05-06 10:48:00 51°15.86 2°35.83 -999 -999 -999 -999
2003-05-06 10:49:00 51°16.04 2°35.97 -999 -999 -999 -999
2003-05-06 10:50:00 51°16.22 2°36.11 -999 -999 -999 -999
2003-05-06 10:51:00 51°16.4 2°36.25 -999 -999 -999 -999
2003-05-06 10:52:00 51°16.59 2°36.39 -999 -999 -999 -999
2003-05-06 10:53:00 51°16.76 2°36.54 -999 -999 -999 -999
2003-05-06 10:54:00 51°16.94 2°36.69 -999 -999 -999 -999
2003-05-06 10:55:00 51°17.12 2°36.83 -999 -999 -999 -999
2003-05-06 10:56:00 51°17.3 2°36.99 -999 -999 -999 -999
2003-05-06 10:57:00 51°17.48 2°37.14 -999 -999 -999 -999
2003-05-06 10:58:00 51°17.65 2°37.29 -999 -999 -999 -999
2003-05-06 10:59:00 51°17.83 2°37.44 -999 -999 -999 -999
2003-05-06 11:00:00 51°18 2°37.59 -999 -999 -999 -999
2003-05-06 11:01:00 51°18.18 2°37.74 -999 -999 -999 -999
2003-05-06 11:02:00 51°18.36 2°37.9 -999 -999 -999 -999
2003-05-06 11:03:00 51°18.53 2°38.05 -999 -999 -999 -999
2003-05-06 11:04:00 51°18.71 2°38.2 -999 -999 -999 -999
2003-05-06 11:05:00 51°18.87 2°38.38 -999 -999 -999 -999
2003-05-06 11:06:00 51°19.04 2°38.55 -999 -999 -999 -999
2003-05-06 11:07:00 51°19.2 2°38.73 -999 -999 -999 -999
2003-05-06 11:08:00 51°19.37 2°38.9 -999 -999 -999 -999
2003-05-06 11:09:00 51°19.53 2°39.09 -999 -999 -999 -999
2003-05-06 11:10:00 51°19.69 2°39.29 -999 -999 -999 -999
2003-05-06 11:11:00 51°19.8 2°39.57 -999 -999 -999 -999
2003-05-06 11:12:00 51°19.84 2°39.89 -999 -999 -999 -999
2003-05-06 11:13:00 51°19.89 2°40.21 -999 -999 -999 -999
2003-05-06 11:14:00 51°19.93 2°40.52 -999 -999 -999 -999
2003-05-06 11:15:00 51°19.99 2°40.84 -999 -999 -999 -999
2003-05-06 11:16:00 51°20.04 2°41.16 -999 -999 -999 -999
2003-05-06 11:17:00 51°20.09 2°41.48 -999 -999 -999 -999
2003-05-06 11:18:00 51°20.15 2°41.8 -999 -999 -999 -999
2003-05-06 11:19:00 51°20.2 2°42.12 -999 -999 -999 -999
2003-05-06 11:20:00 51°20.24 2°42.44 -999 -999 -999 -999
2003-05-06 11:21:00 51°20.29 2°42.76 -999 -999 -999 -999
2003-05-06 11:22:00 51°20.3 2°43.09 -999 -999 -999 -999
2003-05-06 11:23:00 51°20.3 2°43.41 -999 -999 -999 -999
2003-05-06 11:24:00 51°20.3 2°43.74 -999 -999 -999 -999
2003-05-06 11:25:00 51°20.3 2°44.06 -999 -999 -999 -999
2003-05-06 11:26:00 51°20.3 2°44.39 -999 -999 -999 -999
2003-05-06 11:27:00 51°20.31 2°44.72 -999 -999 -999 -999
2003-05-06 11:28:00 51°20.31 2°45.05 -999 -999 -999 -999
2003-05-06 11:29:00 51°20.32 2°45.38 -999 -999 -999 -999
2003-05-06 11:30:00 51°20.32 2°45.71 -999 -999 -999 -999
2003-05-06 11:31:00 51°20.33 2°46.04 -999 -999 -999 -999
2003-05-06 11:32:00 51°20.3 2°46.37 -999 -999 -999 -999
2003-05-06 11:33:00 51°20.18 2°46.66 -999 -999 -999 -999
2003-05-06 11:34:00 51°20.05 2°46.93 -999 -999 -999 -999
2003-05-06 11:35:00 51°19.91 2°47.2 -999 -999 -999 -999
2003-05-06 11:36:00 51°19.78 2°47.48 -999 -999 -999 -999
2003-05-06 11:37:00 51°19.66 2°47.76 -999 -999 -999 -999
2003-05-06 11:38:00 51°19.53 2°48.04 -999 -999 -999 -999
2003-05-06 11:39:00 51°19.41 2°48.33 -999 -999 -999 -999
2003-05-06 11:40:00 51°19.29 2°48.62 -999 -999 -999 -999
2003-05-06 11:41:00 51°19.17 2°48.91 -999 -999 -999 -999
2003-05-06 11:42:00 51°19.05 2°49.2 -999 -999 -999 -999
2003-05-06 11:43:00 51°18.93 2°49.49 -999 -999 -999 -999
2003-05-06 11:44:00 51°18.81 2°49.77 -999 -999 -999 -999
2003-05-06 11:45:00 51°18.68 2°50.05 -999 -999 -999 -999
2003-05-06 11:46:00 51°18.56 2°50.32 -999 -999 -999 -999
2003-05-06 11:47:00 51°18.42 2°50.59 -999 -999 -999 -999
2003-05-06 11:48:00 51°18.29 2°50.86 -999 -999 -999 -999
2003-05-06 11:49:00 51°18.16 2°51.13 -999 -999 -999 -999
2003-05-06 11:50:00 51°18 2°51.38 -999 -999 -999 -999
2003-05-06 11:51:00 51°17.85 2°51.64 -999 -999 -999 -999
2003-05-06 11:52:00 51°17.68 2°51.87 -999 -999 -999 -999
2003-05-06 11:53:00 51°17.47 2°52.03 -999 -999 -999 -999
2003-05-06 11:54:00 51°17.27 2°52.19 -999 -999 -999 -999
2003-05-06 11:55:00 51°17.08 2°52.35 -999 -999 -999 -999
2003-05-06 11:56:00 51°16.95 2°52.41 -999 -999 -999 -999
2003-05-06 11:57:00 51°16.88 2°52.44 -999 -999 -999 -999
2003-05-06 11:58:00 51°16.83 2°52.46 -999 -999 -999 -999
2003-05-06 11:59:00 51°16.79 2°52.49 -999 -999 -999 -999
2003-05-06 12:00:00 51°16.76 2°52.52 -999 -999 -999 -999
2003-05-06 12:01:00 51°16.73 2°52.54 -999 -999 -999 -999
2003-05-06 12:02:00 51°16.7 2°52.57 -999 -999 -999 -999
2003-05-06 12:03:00 51°16.56 2°52.73 -999 -999 -999 -999
2003-05-06 12:04:00 51°16.37 2°52.93 -999 -999 -999 -999
2003-05-06 12:05:00 51°16.16 2°53.1 -999 -999 -999 -999
2003-05-06 12:06:00 51°15.96 2°53.27 -999 -999 -999 -999
2003-05-06 12:07:00 51°15.76 2°53.43 -999 -999 -999 -999
2003-05-06 12:08:00 51°15.56 2°53.62 -999 -999 -999 -999
2003-05-06 12:09:00 51°15.37 2°53.83 -999 -999 -999 -999
2003-05-06 12:10:00 51°15.21 2°54 -999 -999 -999 -999
2003-05-06 12:11:00 51°15.05 2°54.12 -999 -999 -999 -999
2003-05-06 12:12:00 51°14.88 2°54.24 -999 -999 -999 -999
2003-05-06 12:13:00 51°14.74 2°54.31 -999 -999 -999 -999
2003-05-06 12:14:00 51°14.66 2°54.37 -999 -999 -999 -999
2003-05-06 12:15:00 51°14.58 2°54.43 -999 -999 -999 -999
2003-05-06 12:16:00 51°14.5 2°54.61 -999 -999 -999 -999
2003-05-06 12:17:00 51°14.43 2°54.83 -999 -999 -999 -999
2003-05-06 12:18:00 51°14.35 2°55.06 -999 -999 -999 -999